sat.trackr.live / text

‹ back to catalog

STARLINK-4179

NORAD 53275 · 2022-086AK

PAYLOAD ACTIVE UNKNOWN

§ Identity

Operator
Country
US
Launch date
2022-07-24
Launch site
AFETR
Launch vehicle
Mass (kg)
RCS (m²)

Purposes: comms

External: N2YO · Heavens-Above · Gunter

§ Orbital elements

Epoch: 2026-09-20T04:00:03.000096Z

Period
93.85 min
Inclination
53.1597°
Eccentricity
0.0001523
Mean motion
15.34361331 rev/d
Perigee alt
461.8 km
Apogee alt
463.9 km
Semi-major
6,841.0 km
B*
1.6281e-3
RAAN
15.6145°
Arg perigee
93.8236°
Mean anomaly
267.7293°
Rev number
576

§ Raw data

STARLINK-41791 53275U 22086AK  26263.16670139  .00054969  00000+0  16281-2 0  99942 53275  53.1597  15.6145 0001523  93.8236 267.7293 15.34361331  5762

JSON: /api/v1/satellites/53275 · /tle

For live sub-satellite position, see the globe view (requires WebGL).

§ Visibility from observer

Set your observer location to see the next 7 days of passes ≥ 10°. The values pass through the URL so the page stays shareable.

No JS? Fill the form by hand. The geolocation button needs JavaScript.